Regional Weather Roundup
Issued by NWS Jackson, KY

Home | Current Version | Previous Version | Graphics & Text | Print | Product List | Glossary On
Versions: 1 2 3 4 5 6 7 8 9 10 11 12 13 14 15 16 17 18 19 20 21 22 23 24 25 26 27 28 29 30 31 32 33 34 35 36 37 38 39 40 41 42 43 44 45 46 47 48 49 50
000
ASUS43 KJKL 182119
RWRJKL

EAST KENTUCKY HOURLY WEATHER ROUNDUP
NATIONAL WEATHER SERVICE JACKSON KY
400 PM EST THU DEC 18 2014

NOTE: "FAIR" INDICATES FEW OR NO CLOUDS BELOW 12,000 FEET WITH
NO SIGNIFICANT WEATHER AND/OR OBSTRUCTIONS TO VISIBILITY.

* THESE REPORTS ARE NOT UNDER NWS QUALITY CONTROL AND MAY NOT
  REPORT WEATHER SUCH AS PRECIPITATION AND FOG.

KYZ079-080-083-085-087-088-110-112-115-119-120-182200
...EASTERN KENTUCKY...

CITY           SKY/WX    TMP DP  RH WIND       PRES   REMARKS
JACKSON        CLOUDY    33  23  66 CALM      30.18S
LONDON         CLOUDY    37  25  61 CALM      30.17F
SOMERSET*      CLOUDY    34  27  75 CALM      30.21R
MONTICELLO*    CLOUDY    36  28  73 CALM      30.22S
MIDDLESBORO*   CLOUDY    40  28  62 NW7       30.17R
HARLAN APT*    CLOUDY    39  28  65 NW7       30.15R WCI  34
HAZARD APT*    CLOUDY    36  27  69 CALM      30.18
BLACK MTN*       N/A     30  27  86 NW1         N/A
PIKEVILLE APT* CLOUDY    34  25  69 NW10      30.18R WCI  26
BIG SANDY*     CLOUDY    33  25  71 N5        30.20R WCI  29
MOREHEAD APT*  MOCLDY    32  23  69 CALM      30.21F
ASHLAND*       CLOUDY    32  19  59 CALM      30.20F
$$

KYZ035-036-041-042-044-050-067-078-099-182200
...CENTRAL KENTUCKY...

CITY           SKY/WX    TMP DP  RH WIND       PRES   REMARKS
MT STERLING*   CLOUDY    32  27  80 CALM      30.20F
FLEMING/MASON* CLOUDY    28  23  80 CALM      30.21F
DANVILLE*      CLOUDY    32  27  80 CALM      30.20F
RICHMOND*      CLOUDY    32  25  74 CALM      30.18S
LEXINGTON      CLOUDY    31  24  75 N3        30.20F
FRANKFORT      CLOUDY    32  23  69 NW3       30.20F
$$

KYZ091>093-OHZ055-061-077-WVZ005-015-034-035-042-182200
...SOUTHERN OHIO/WEST VIRGINIA...

CITY           SKY/WX    TMP DP  RH WIND       PRES   REMARKS
COVINGTON      CLOUDY    30  19  63 NW3       30.21R
COLUMBUS       CLOUDY    28  20  71 NW5       30.20S WCI  23
DAYTON         CLOUDY    29  21  72 NW6       30.21S WCI  23
WILMINGTON     CLOUDY    28  19  69 W3        30.19S
HUNTINGTON     CLOUDY    31  22  69 N3        30.19F
CHARLESTON     CLOUDY    32  22  66 NW5       30.20R WCI  27
PINEVILLE*     CLOUDY    39  27  62 MISG      30.16R
BECKLEY        CLOUDY    34  21  59 NW8       30.08R WCI  27
BLUEFIELD      CLOUDY    37  20  50 W8        30.05S WCI  31
$$

VAZ002-007-008-TNZ017-027-036-066-071-182200
...SOUTHWEST VIRGINIA/EAST TENNESSEE...

CITY           SKY/WX    TMP DP  RH WIND       PRES   REMARKS
WISE*          CLOUDY    37  23  56 N8        30.09R WCI  31
JONESVILLE*    MOCLDY    41  28  60 CALM      30.15R
ABINGDON*      CLOUDY    41  25  53 NW5       30.09S
BRISTOL        CLOUDY    41  26  55 W5        30.12R
KNOXVILLE      CLOUDY    43  31  62 CALM      30.14R
OAK RIDGE      CLOUDY    46  29  51 CALM      30.17R
CROSSVILLE     CLOUDY    40  31  70 N3        30.14R
NASHVILLE      CLOUDY    39  31  72 CALM      30.22R
$$

...KEY TO REMARKS...
VSB - VISIBILITY IN MILES
WCI - WIND CHILL INDEX
HX  - HEAT INDEX

$$



USA.gov is the U.S. government's official web portal to all federal, state and local government web resources and services.